User: anonymous   Login
Location: Fort Frances
(48.6170°N, 93.4170°W)
Time: 11:12:11
(UTC-05:00)
Language:

CZ-2C R/B - Orbit

View from above orbital plane
View from above orbital plane
View from above satellite
View from above satellite

Ground track
Ground track

The orbit data is extracted from the following two-line orbital elements,

1 36089U 09061B   15210.70800433  .00000108  00000-0  38414-4 0  9999
2 36089 098.0695 231.9692 0082354 006.6900 112.0782 14.49471857301960
Epoch (UTC): 29 July 2015 16:59:31
Eccentricity: 0.0082354
inclination: 98.0695°
perigee height: 669 km
apogee height: 786 km
right ascension of ascending node: 231.9692°
argument of perigee: 6.6900°
revolutions per day: 14.49471857
mean anomaly at epoch: 112.0782°
orbit number at epoch: 30196

The dashed part of the orbit path shows where the satellite is in the earth's shadow,  

DLR